Etusivu
METAR-TAF:

METAR-TAF

Lentoasemat :

Millington, Tennessee, Yhdysvallat

Leveyspiiri: 35-21-24N, Pituuspiiri: 089-52-13W, korkeus merenpinnasta: 98 m

Tämänhetkinen sää

Tämä raportti tehtiin 55 minuuttia sitten, kello 00.50 UTC
tyyntä
Lämpötila 14°C
Kosteus 72%
Ilmanpaine 1012 hPa
Näkyvyys: 16.1 km
selkeää

METAR: KNQA 190050Z 00000KT 10SM CLR 14/09 A2987

Aika: 20:45 (01:45 UTC)


TAF: puuttuu

Säähavainnot ja -ennusteet yli 4000 lentoasemalta (METAR- ja TAF-raportit).

Käytössä olevat sääasemat on merkitty karttaan keltaisilla ja punaisilla pisteillä.

Aseta hiiri pisteen päälle nähdäksesi sääaseman nimen.

Klikkaa sitten nähdäksesi säähavainnot ja -ennusteet.

Kartan vaihtaminen: klikkaa mustalla rastilla varustettuja vihreitä pisteitä, niin voit zoomata sisään; viivalla varustettua vihreää pistettä, niin voit zoomata ulos tai vihreitä nuolia, niin pääset viereisille kartoille.


METAR-TAF: